COSMOS 2596 (708K)

Last updated on Thu Oct 30 2025 00:03:21 GMT+0000 (Coordinated Universal Time)

1 65590U 25206B 25302.22711771 -.00000012 00000+0 00000+0 0 9992 2 65590 64.7679 323.0230 0013696 302.5539 146.9390 2.13100870 982
UTC large
Height (km)
Speed (km/s)
/
Latitude / Longitude
Inclination (degrees)
Orbital Period (minutes)
Azimuth
Elevation
Range (km)
Doppler Factor

Next 0 passes for location: London (51.5072 / 0.1276)

Sorry there are no passes over London.